Weather History for KTMB - November, 2013

Change the Weather History Date:

Tuesday, November 12, 2013

  Actual Average (KMIA) Record (KMIA)
Temperature  
Mean Temperature 78 °F 75 °F  
Max Temperature 87 °F 82 °F 89 °F (2002)
Min Temperature 70 °F 69 °F 50 °F (1913)
Degree Days  
Heating Degree Days 0 0  
Month to date heating degree days 0  
Since 1 July heating degree days 0  
Cooling Degree Days 14 10  
Month to date cooling degree days 136  
Year to date cooling degree days 4208  
Growing Degree Days 28 (Base 50)    
Moisture  
Dew Point 69 °F    
Average Humidity 76    
Maximum Humidity 93    
Minimum Humidity 59    
Precipitation  
Precipitation 0.01 in 0.12 in 4.15 in (1954)
Month to date precipitation 1.56  
Year to date precipitation 58.15  
Snow  
Snow 0.00 in - - ()
Month to date snowfall  
Since 1 July snowfall  
Since 1 September snowfall  
Snow Depth -    
Sea Level Pressure  
Sea Level Pressure 30.02 in    
Wind  
Wind Speed 4 mph (NE)    
Max Wind Speed 14 mph    
Max Gust Speed -    
Visibility 10 miles    
Events      
T = Trace of Precipitation, MM = Missing Value Source: NWS Daily Summary

Daily Weather History Graph

Daily Weather History Graph

Search for Another Location

Airport or City:

Trip Planner

Search our weather history database for the weather conditions in past years. The results will help you decide how hot, cold, wet, or windy it might be!

Date:

Astronomy

Nov. 12, 2013 Rise Set
Actual Time 6:37 AM EST 5:34 PM EST
Civil Twilight 6:13 AM EST 5:58 PM EST
Nautical Twilight 5:45 AM EST 6:25 PM EST
Astronomical Twilight 5:18 AM EST 6:53 PM EST
Moon 2:21 PM EST (11/12) 1:54 AM EST (11/12)
Length of Visible Light 11h 44m
Length of Day
10h 56m
Waxing Gibbous, 76% of the Moon is Illuminated
Nov 12
Waxing Gibbous
Nov 17
Full
Nov 25
Last Quarter
Dec 2
New
Dec 9
First Quarter

Hourly Weather History & Observations

Time (EST) Temp. Heat Index Dew Point Humidity Pressure Visibility Wind Dir Wind Speed Gust Speed Precip Events Conditions
12:53 AM 72.0 °F - 68.0 °F 87% 30.06 in 10.0 mi Calm Calm - N/A   Clear
1:53 AM 70.0 °F - 68.0 °F 93% 30.04 in 10.0 mi Calm Calm - N/A   Clear
2:53 AM 70.0 °F - 68.0 °F 93% 30.03 in 10.0 mi Calm Calm - N/A   Clear
3:53 AM 72.0 °F - 69.1 °F 91% 30.02 in 10.0 mi North 4.6 mph - N/A   Clear
4:53 AM 73.0 °F - 68.0 °F 84% 30.02 in 10.0 mi North 4.6 mph - N/A   Clear
5:53 AM 73.0 °F - 69.1 °F 87% 30.03 in 10.0 mi North 5.8 mph - N/A   Clear
6:53 AM 73.0 °F - 69.1 °F 87% 30.05 in 10.0 mi North 4.6 mph - N/A   Clear
7:53 AM 75.9 °F - 70.0 °F 82% 30.06 in 10.0 mi North 5.8 mph - N/A   Clear
8:53 AM 78.1 °F - 70.0 °F 76% 30.07 in 10.0 mi NNE 4.6 mph - N/A   Mostly Cloudy
9:53 AM 82.9 °F 87.5 °F 71.1 °F 67% 30.08 in 10.0 mi NE 8.1 mph - N/A   Scattered Clouds
10:53 AM 82.9 °F 87.5 °F 71.1 °F 67% 30.06 in 10.0 mi ENE 8.1 mph - N/A   Mostly Cloudy
11:53 AM 82.9 °F 87.0 °F 70.0 °F 65% 30.03 in 10.0 mi ENE 5.8 mph - N/A   Scattered Clouds
12:53 PM 87.1 °F 92.8 °F 71.1 °F 59% 30.00 in 10.0 mi ENE 5.8 mph - 0.00 in   Mostly Cloudy
1:53 PM 82.9 °F 87.0 °F 70.0 °F 65% 29.98 in 10.0 mi NE 8.1 mph - N/A   Scattered Clouds
2:53 PM 82.9 °F 87.5 °F 71.1 °F 67% 29.97 in 10.0 mi East 10.4 mph - N/A   Mostly Cloudy
3:53 PM 80.1 °F 83.6 °F 71.1 °F 74% 29.97 in 10.0 mi East 13.8 mph - 0.01 in   Overcast
4:53 PM 80.1 °F 82.9 °F 69.1 °F 69% 29.97 in 10.0 mi East 11.5 mph - N/A   Overcast
5:53 PM 78.1 °F - 68.0 °F 71% 29.99 in 10.0 mi ENE 6.9 mph - N/A   Clear
6:53 PM 77.0 °F - 66.0 °F 69% 30.00 in 10.0 mi ENE 6.9 mph - N/A   Clear
7:53 PM 77.0 °F - 66.9 °F 71% 30.02 in 10.0 mi ENE 3.5 mph - N/A   Clear
8:53 PM 77.0 °F - 68.0 °F 74% 30.03 in 10.0 mi NNE 3.5 mph - N/A   Clear
9:53 PM 77.0 °F - 66.9 °F 71% 30.04 in 10.0 mi Calm Calm - N/A   Clear
10:53 PM 75.0 °F - 68.0 °F 79% 30.04 in 10.0 mi North 5.8 mph - N/A   Clear
11:53 PM 73.0 °F - 68.0 °F 84% 30.04 in 10.0 mi North 6.9 mph - N/A   Clear